Location:  
MeteoStar


Sort by weather type Sort by elevation Sort by visibility Sort from west to east north Sort from north to south Alphabetically Sort from strongest wind speed Sort from lowest to highest pressure Sort from highest to lowest dew point temperature Sort coolest temperatures to warmest Sort warm temperatures to coolest
 Metric

Current Observations for Saudi Arabia

Abha16:00ZPartly Cloudy75 70S 6 756856
Al Ahsa16:00ZNot Avail.108 59999.1NNE 9 107587
Al Baha16:00ZPartly Cloudy91 45NNE 11 885419
Al Qaysumah16:00ZClear111 5751003.0N 17 1101174
Al-Jouf16:00ZNot Avail.106 3951007.3NE 1 1002260
Arar16:00ZNot Avail.104 6151006.1NE 6 1051820
Bisha16:00ZClear99 3951002.5NNE 10 943828
Dhahran16:00ZClear102 645997.0NNE 6 10585
Gassim16:00ZNot Avail.108 5051003.2NNE 11 1042125
Gizan16:00ZNot Avail.93 8251003.1W 9 11619
Guriat16:00ZNot Avail.97 3951008.0NNW 12 921669
Hafr Al-Batin16:00ZNot Avail.111 5551003.6N 12 1101354
Hail16:00ZClear102 4551007.2ENE 8 983330
Jeddah King Abdul Aziz International Airport 16:00ZMostly Cloudy95 6851001.1NNW 18 9949
Khamis Mushait16:00ZPartly Cloudy75 645SSW 10 756778
King Khaled International Airport16:00ZPartly Cloudy106 3751002.6NE 5 1002014
Madinah16:00ZPartly Cloudy109 322.51005.4E 8 1022145
Makkah16:00ZPartly Cloudy102 662.51001.6NNW 4 1061017
Najran16:00ZPartly Cloudy97 412.51003.2E 8 923976
Rafha16:00ZNot Avail.106 3751004.6N 9 1001473
Sharurah16:00ZClear104 4551001.1ENE 7 1002362
Tabuk16:00ZPartly Cloudy102 4151006.1S 4 972552
Taif16:00ZPartly Cloudy86 6341007.2WNW 15 864849
Turaif16:00ZNot Avail.97 4341009.4NW 6 922667
Wejh16:00ZNot Avail.93 7541004.0NW 13 10465
Yenbo16:00ZNot Avail.104 6341000.1W 15 10626

Atlantic
Tropical Watch